Preview of NWS' New Version of Forecast
This preview is not operational and should not be used for support decisions.

Regional Weather Roundup (RWR)

Issued by National Weather Service (NWS)

                            
000
ASUS46 KPQR 201410
RWROR 

OREGON REGIONAL WEATHER ROUNDUP
NATIONAL WEATHER SERVICE PORTLAND OR
700 AM PDT SAT APR 20 2019

NOTE: "FAIR" INDICATES FEW OR NO CLOUDS BELOW 12,000 FEET WITH
NO SIGNIFICANT WEATHER AND/OR OBSTRUCTIONS TO VISIBILITY.

ORZ001>013-201500-
NORTHWEST OREGON

  
CITY           SKY/WX    TMP DP  RH WIND       PRES   REMARKS
ASTORIA        CLOUDY    49  45  86 CALM      30.01S                  
TILLAMOOK      CLOUDY    48  45  87 CALM      30.04R                  
NEWPORT        CLOUDY    50  45  81 N10       30.04S                  
PORTLAND       CLOUDY    51  45  79 NW6       29.98R                  
VANCOUVER WA   CLOUDY    51  45  79 NW5       29.98R                  
SCAPPOOSE      CLOUDY    52  44  74 NW7       29.98R                  
HILLSBORO      CLOUDY    49  43  80 NW14      29.98R                  
AURORA         CLOUDY    50  44  80 NW3       29.99R                  
MCMINNVILLE    CLOUDY    49  47  93 SW3       29.98R                  
SALEM          CLOUDY    49  46  90 NW5       29.98R                  
CORVALLIS      CLOUDY    49  47  93 NW8       29.99R                  
EUGENE         CLOUDY    50  47  89 N7        29.98R                  
$$

ORZ021-028-201500-
SOUTHWEST OREGON

  
CITY           SKY/WX    TMP DP  RH WIND       PRES   REMARKS
NORTH BEND     CLOUDY    51  46  83 N18       30.04R                  
BROOKINGS      MOCLDY    50  45  83 NW9       29.95R                  
ROSEBURG       CLOUDY    51  51 100 NW6       29.96R                  
SEXTON SUMMIT  LGT RAIN  39  39 100 VRB3      29.88R VSB 3/4          
GRANTS PASS    CLOUDY    50  46  87 CALM      29.94R                  
MEDFORD        LGT RAIN  50  48  93 W6        29.89R                  
$$

ORZ014>016-041-201500-
COLUMBIA GORGE

  
CITY           SKY/WX    TMP DP  RH WIND       PRES   REMARKS
TROUTDALE      CLOUDY    51  45  79 NW6       29.98R                  
HOOD RIVER     CLOUDY    52  45  76 MISG      29.91R                  
THE DALLES     CLOUDY    53  46  77 NW15      29.88R                  
$$

ORZ029>031-041-044-049-050-061>064-502-503-505>511-201500-
EASTERN OREGON

  
CITY           SKY/WX    TMP DP  RH WIND       PRES   REMARKS
MADRAS         DRIZZLE   45  43  93 NW8       29.91R                  
REDMOND        LGT RAIN  47  44  90 N3        29.88R FOG              
BEND           LGT RAIN  45  45 100 CALM      29.88S                  
PRINEVILLE     CLOUDY    45  45 100 NW5       29.88R                  
KLAMATH FALLS  LGT RAIN  47  45  93 W6        29.82S                  
LAKEVIEW       HVY RAIN  46  45  93 SW10G17   29.83R                  
HERMISTON      CLOUDY    54  51  90 SW7       29.85S                  
PENDLETON      LGT RAIN  50  49  96 W10       29.85R                  
JOHN DAY       CLOUDY    46  45  95 W3        29.85S                  
MEACHAM        LGT RAIN  44  42  93 CALM      29.85R FOG              
LA GRANDE      CLOUDY    48  46  93 N7        29.84S                  
BAKER CITY     CLOUDY    48  43  82 CALM      29.83R                  
BURNS          CLOUDY    47  43  86 NW9       29.81F                  
ROME             N/A     55  32  41 E9        29.79F                  
ONTARIO        CLOUDY    58  45  62 NW10      29.80R                  
$$